sat.trackr.live / text

‹ back to catalog

FOREST-17 (TELPERION)

NORAD 68988 · 2026-100J

PAYLOAD ACTIVE UNKNOWN

§ Identity

Operator
Country
GREC
Launch date
2026-05-03
Launch site
AFWTR
Launch vehicle
Mass (kg)
RCS (m²)

External: N2YO · Heavens-Above · Gunter

§ Orbital elements

Epoch: 2026-09-19T12:50:49.443072Z

Period
96.46 min
Inclination
97.7209°
Eccentricity
0.0005391
Mean motion
14.92917396 rev/d
Perigee alt
585.1 km
Apogee alt
592.6 km
Semi-major
6,967.0 km
B*
1.0330e-4
RAAN
158.0929°
Arg perigee
172.3287°
Mean anomaly
187.8016°
Rev number
2,076

§ Raw data

FOREST-17 (TELPERION)1 68988U 26100J   26262.53529448  .00001016  00000+0  10330-3 0  99932 68988  97.7209 158.0929 0005391 172.3287 187.8016 14.92917396 20764

JSON: /api/v1/satellites/68988 · /tle

For live sub-satellite position, see the globe view (requires WebGL).

§ Visibility from observer

Set your observer location to see the next 7 days of passes ≥ 10°. The values pass through the URL so the page stays shareable.

No JS? Fill the form by hand. The geolocation button needs JavaScript.